Time,TemperatureF,DewpointF,PressureIn,WindDirection,WindDirectionDegrees,WindSpeedMPH,WindSpeedGustMPH,Humidity,HourlyPrecipIn,Conditions,Clouds,dailyrainin,SoftwareType,DateUTC
2013-05-11 00:00:00,42.1,40.0,29.90,NE,44,0.0,0.0,92,0.00, +TSGR FG,SKC,-99.99,VWS V12.07,2013-05-11 05:00:00,
2013-05-11 00:05:00,41.8,39.7,29.90,NE,44,0.0,0.0,92,0.00, +TSGR FG,SKC,-99.99,VWS V12.07,2013-05-11 05:05:00,
2013-05-11 00:15:00,41.4,39.5,29.89,NE,44,0.0,0.0,93,0.00, +TSGR FG,SKC,-99.99,VWS V12.07,2013-05-11 05:15:00,
2013-05-11 00:20:00,41.3,39.4,29.89,NE,44,0.0,0.0,93,0.00, +TSGR FG,SKC,-99.99,VWS V12.07,2013-05-11 05:20:00,
2013-05-11 00:25:00,41.1,39.2,29.89,NE,44,0.0,0.0,93,0.00, +TSGR FG,SKC,-99.99,VWS V12.07,2013-05-11 05:25:00,
2013-05-11 00:30:00,40.9,39.0,29.89,NE,44,0.0,0.0,93,0.00, +TSGR FG,SKC,-99.99,VWS V12.07,2013-05-11 05:30:00,
2013-05-11 00:35:00,40.8,39.2,29.89,NE,44,0.0,0.0,94,0.00, +TSGR FG,SKC,-99.99,VWS V12.07,2013-05-11 05:35:00,
2013-05-11 00:40:00,40.6,38.7,29.89,NE,44,0.0,0.0,93,0.00, +TSGR FG,SKC,-99.99,VWS V12.07,2013-05-11 05:40:00,
2013-05-11 00:45:00,40.4,38.8,29.89,NE,44,0.0,0.0,94,0.00, +TSGR FG,SKC,-99.99,VWS V12.07,2013-05-11 05:45:00,
2013-05-11 00:50:00,40.4,38.8,29.89,NE,44,0.0,0.0,94,0.00, +TSGR FG,SKC,-99.99,VWS V12.07,2013-05-11 05:50:00,
2013-05-11 00:55:00,40.3,38.7,29.89,NE,44,0.0,0.0,94,0.00, +TSGR FG,SKC,-99.99,VWS V12.07,2013-05-11 05:55:00,
2013-05-11 01:00:00,40.2,38.6,29.89,NE,44,0.0,0.0,94,0.00, +TSGR FG,SKC,-99.99,VWS V12.07,2013-05-11 06:00:00,
2013-05-11 01:05:00,40.2,38.6,29.89,NE,44,0.0,0.0,94,0.00, +TSGR FG,SKC,-99.99,VWS V12.07,2013-05-11 06:05:00,
2013-05-11 01:10:00,40.1,38.5,29.89,NE,44,0.0,0.0,94,0.00, +TSGR FG,SKC,-99.99,VWS V12.07,2013-05-11 06:10:00,
2013-05-11 01:15:00,39.9,38.3,29.89,NE,44,0.0,0.0,94,0.00, +TSGR FG,SKC,-99.99,VWS V12.07,2013-05-11 06:15:00,
2013-05-11 01:20:00,39.8,38.2,29.88,NE,44,0.0,0.0,94,0.00, +TSGR FG,SKC,-99.99,VWS V12.07,2013-05-11 06:20:00,
2013-05-11 01:25:00,39.7,38.4,29.88,NE,44,0.0,0.0,95,0.00, +TSGR FG,SKC,-99.99,VWS V12.07,2013-05-11 06:25:00,
2013-05-11 01:30:00,39.6,38.3,29.88,NE,44,0.0,0.0,95,0.00, +TSGR FG,SKC,-99.99,VWS V12.07,2013-05-11 06:30:00,
2013-05-11 01:35:00,39.7,38.4,29.88,NE,44,0.0,0.0,95,0.00, +TSGR FG,SKC,-99.99,VWS V12.07,2013-05-11 06:35:00,
2013-05-11 01:40:00,39.8,38.5,29.88,NE,44,0.0,0.0,95,0.00, +TSGR FG,SKC,-99.99,VWS V12.07,2013-05-11 06:40:00,
2013-05-11 01:45:00,40.0,38.7,29.87,NE,44,0.0,0.0,95,0.00, +TSGR FG,SKC,-99.99,VWS V12.07,2013-05-11 06:45:00,
2013-05-11 01:50:00,40.0,38.7,29.87,NE,44,0.0,0.0,95,0.00, +TSGR FG,SKC,-99.99,VWS V12.07,2013-05-11 06:50:00,
2013-05-11 01:55:00,40.0,38.7,29.87,NE,44,0.0,0.0,95,0.00, +TSGR FG,SKC,-99.99,VWS V12.07,2013-05-11 06:55:00,
2013-05-11 02:00:00,39.9,38.6,29.86,NE,44,0.0,0.0,95,0.00, +TSGR FG,SKC,-99.99,VWS V12.07,2013-05-11 07:00:00,
2013-05-11 02:05:00,39.8,38.5,29.86,NE,44,0.0,0.0,95,0.00, +TSGR FG,SKC,-99.99,VWS V12.07,2013-05-11 07:05:00,
2013-05-11 02:10:00,39.8,38.5,29.86,NE,44,0.0,0.0,95,0.00, +TSGR FG,SKC,-99.99,VWS V12.07,2013-05-11 07:10:00,
2013-05-11 02:15:00,39.7,38.4,29.86,NE,44,0.0,0.0,95,0.00, +TSGR FG,SKC,-99.99,VWS V12.07,2013-05-11 07:15:00,
2013-05-11 02:20:00,39.6,38.3,29.86,NE,44,0.0,0.0,95,0.00, +TSGR FG,SKC,-99.99,VWS V12.07,2013-05-11 07:20:00,
2013-05-11 02:25:00,39.5,38.2,29.85,NE,44,0.0,0.0,95,0.00, +TSGR FG,SKC,-99.99,VWS V12.07,2013-05-11 07:25:00,
2013-05-11 02:30:00,39.5,38.2,29.85,NE,44,0.0,0.0,95,0.00, +TSGR FG,SKC,-99.99,VWS V12.07,2013-05-11 07:30:00,
2013-05-11 02:35:00,39.5,38.2,29.85,NE,44,0.0,0.0,95,0.00, +TSGR FG,SKC,-99.99,VWS V12.07,2013-05-11 07:35:00,
2013-05-11 02:40:00,39.5,38.2,29.85,NE,44,0.0,0.0,95,0.00, +TSGR FG,SKC,-99.99,VWS V12.07,2013-05-11 07:40:00,
2013-05-11 02:45:00,39.5,38.2,29.85,NE,44,0.0,0.0,95,0.00, +TSGR FG,SKC,-99.99,VWS V12.07,2013-05-11 07:45:00,
2013-05-11 02:50:00,39.4,38.1,29.85,NE,44,0.0,0.0,95,0.00, +TSGR FG,SKC,-99.99,VWS V12.07,2013-05-11 07:50:00,
2013-05-11 02:55:00,39.3,38.0,29.85,NE,44,0.0,0.0,95,0.00, +TSGR FG,SKC,-99.99,VWS V12.07,2013-05-11 07:55:00,
2013-05-11 03:00:00,39.3,38.0,29.85,NE,44,0.0,0.0,95,0.00, +TSGR FG,SKC,-99.99,VWS V12.07,2013-05-11 08:00:00,
2013-05-11 03:05:00,39.3,38.0,29.85,NE,44,0.0,0.0,95,0.00, +TSGR FG,SKC,-99.99,VWS V12.07,2013-05-11 08:05:00,
2013-05-11 03:10:00,39.2,37.9,29.85,NE,44,0.0,0.0,95,0.00, +TSGR FG,SKC,-99.99,VWS V12.07,2013-05-11 08:10:00,
2013-05-11 03:15:00,39.1,37.8,29.85,NE,44,0.0,0.0,95,0.00, +TSGR FG,SKC,-99.99,VWS V12.07,2013-05-11 08:15:00,
2013-05-11 03:20:00,39.1,37.8,29.85,NE,44,0.0,0.0,95,0.00, +TSGR FG,SKC,-99.99,VWS V12.07,2013-05-11 08:20:00,
2013-05-11 03:25:00,39.2,38.2,29.84,NE,44,0.0,1.0,96,0.00, +TSGR FG,SKC,-99.99,VWS V12.07,2013-05-11 08:25:00,
2013-05-11 03:30:00,39.3,38.3,29.85,NE,44,0.0,1.0,96,0.00, +TSGR FG,SKC,-99.99,VWS V12.07,2013-05-11 08:30:00,
2013-05-11 03:35:00,39.3,38.3,29.85,NE,44,0.0,0.0,96,0.00, +TSGR FG,SKC,-99.99,VWS V12.07,2013-05-11 08:35:00,
2013-05-11 03:40:00,39.4,38.4,29.84,NE,44,0.0,1.0,96,0.00, +TSGR FG,SKC,-99.99,VWS V12.07,2013-05-11 08:40:00,
2013-05-11 03:45:00,39.8,38.8,29.84,WSW,239,0.0,3.0,96,0.00, +TSGR FG,SKC,-99.99,VWS V12.07,2013-05-11 08:45:00,
2013-05-11 03:50:00,40.1,39.0,29.84,WSW,239,0.0,3.0,96,0.00, +TSGR FG,SKC,-99.99,VWS V12.07,2013-05-11 08:50:00,
2013-05-11 03:55:00,40.2,39.2,29.84,WSW,239,0.0,2.0,96,0.00, +TSGR FG,SKC,-99.99,VWS V12.07,2013-05-11 08:55:00,
2013-05-11 04:05:00,40.4,39.3,29.84,South,173,1.0,2.0,96,0.00, +TSGR FG,SKC,-99.99,VWS V12.07,2013-05-11 09:05:00,
2013-05-11 04:10:00,40.6,39.5,29.84,South,173,0.0,2.0,96,0.00, +TSGR FG,SKC,-99.99,VWS V12.07,2013-05-11 09:10:00,
2013-05-11 04:15:00,40.9,39.8,29.84,SW,221,0.0,2.0,96,0.00, +TSGR FG,SKC,-99.99,VWS V12.07,2013-05-11 09:15:00,
2013-05-11 04:20:00,41.1,40.0,29.84,SW,218,0.0,3.0,96,0.00, +TSGR FG,SKC,-99.99,VWS V12.07,2013-05-11 09:20:00,
2013-05-11 04:25:00,41.3,40.2,29.83,SW,215,1.0,3.0,96,0.00, +TSGR FG,SKC,-99.99,VWS V12.07,2013-05-11 09:25:00,
2013-05-11 04:30:00,41.5,40.5,29.83,SW,223,0.0,4.0,96,0.00, +TSGR FG,SKC,-99.99,VWS V12.07,2013-05-11 09:30:00,
2013-05-11 04:35:00,41.5,40.5,29.83,SW,223,0.0,2.0,96,0.00, +TSGR FG,SKC,-99.99,VWS V12.07,2013-05-11 09:35:00,
2013-05-11 04:40:00,41.4,40.3,29.83,SW,215,1.0,4.0,96,0.00, +TSGR FG,SKC,-99.99,VWS V12.07,2013-05-11 09:40:00,
2013-05-11 04:45:00,41.5,40.5,29.83,SW,221,0.0,4.0,96,0.00, +TSGR FG,SKC,-99.99,VWS V12.07,2013-05-11 09:45:00,
2013-05-11 04:50:00,41.6,40.5,29.83,SW,221,0.0,4.0,96,0.00, +TSGR FG,SKC,-99.99,VWS V12.07,2013-05-11 09:50:00,
2013-05-11 04:55:00,41.7,40.7,29.83,SW,221,1.0,2.0,96,0.00, +TSGR FG,SKC,-99.99,VWS V12.07,2013-05-11 09:55:00,
2013-05-11 05:00:00,41.8,40.8,29.83,SW,221,0.0,3.0,96,0.00, +TSGR FG,SKC,-99.99,VWS V12.07,2013-05-11 10:00:00,
2013-05-11 05:05:00,41.9,40.8,29.82,SSW,205,1.0,3.0,96,0.00, +TSGR FG,SKC,-99.99,VWS V12.07,2013-05-11 10:05:00,
2013-05-11 05:10:00,42.0,40.9,29.82,SSW,209,0.0,3.0,96,0.00, +TSGR FG,SKC,-99.99,VWS V12.07,2013-05-11 10:10:00,
2013-05-11 05:15:00,42.1,41.0,29.83,SSW,209,0.0,1.0,96,0.00, +TSGR FG,SKC,-99.99,VWS V12.07,2013-05-11 10:15:00,
2013-05-11 05:20:00,42.4,41.3,29.83,SSW,209,0.0,2.0,96,0.00, +TSGR FG,SKC,-99.99,VWS V12.07,2013-05-11 10:20:00,
2013-05-11 05:25:00,42.7,41.6,29.83,SSW,209,1.0,4.0,96,0.00, +TSGR FG,SKC,-99.99,VWS V12.07,2013-05-11 10:25:00,
2013-05-11 05:30:00,43.0,41.9,29.82,SSW,192,2.0,4.0,96,0.00, +TSGR FG,SKC,-99.99,VWS V12.07,2013-05-11 10:30:00,
2013-05-11 05:35:00,43.3,42.2,29.82,SW,216,3.0,5.0,96,0.00, +TSGR FG,SKC,-99.99,VWS V12.07,2013-05-11 10:35:00,
2013-05-11 05:40:00,43.3,42.2,29.82,SSW,199,5.0,5.0,96,0.00, +TSGR FG,SKC,-99.99,VWS V12.07,2013-05-11 10:40:00,
2013-05-11 05:45:00,43.4,42.3,29.82,SW,219,1.0,4.0,96,0.00, +TSGR FG,SKC,-99.99,VWS V12.07,2013-05-11 10:45:00,
2013-05-11 05:50:00,43.4,42.3,29.82,SW,216,2.0,4.0,96,0.00, +TSGR FG,SKC,-99.99,VWS V12.07,2013-05-11 10:50:00,
2013-05-11 05:55:00,43.4,42.3,29.82,SSW,194,0.0,4.0,96,0.00, +TSGR FG,SKC,-99.99,VWS V12.07,2013-05-11 10:55:00,
2013-05-11 06:00:00,43.5,42.4,29.81,SSW,201,1.0,4.0,96,0.00, +TSGR FG,SKC,-99.99,VWS V12.07,2013-05-11 11:00:00,
2013-05-11 06:05:00,43.6,42.5,29.81,SSW,200,4.0,4.0,96,0.00, +TSGR FG,SKC,-99.99,VWS V12.07,2013-05-11 11:05:00,
2013-05-11 06:10:00,43.7,42.6,29.81,South,190,3.0,4.0,96,0.00, +TSGR FG,SKC,-99.99,VWS V12.07,2013-05-11 11:10:00,
2013-05-11 06:15:00,43.8,42.7,29.81,SSW,211,1.0,4.0,96,0.00, +TSGR FG,SKC,-99.99,VWS V12.07,2013-05-11 11:15:00,
2013-05-11 06:20:00,43.9,42.8,29.81,SW,221,1.0,5.0,96,0.00, +TSGR FG,SKC,-99.99,VWS V12.07,2013-05-11 11:20:00,
2013-05-11 06:25:00,44.0,42.9,29.81,WSW,240,0.0,3.0,96,0.00, +TSGR FG,SKC,-99.99,VWS V12.07,2013-05-11 11:25:00,
2013-05-11 06:30:00,44.1,43.0,29.81,West,264,0.0,4.0,96,0.00, +TSGR FG,SKC,-99.99,VWS V12.07,2013-05-11 11:30:00,
2013-05-11 06:35:00,44.2,43.1,29.81,SSW,209,3.0,6.0,96,0.00, +TSGR FG,SKC,-99.99,VWS V12.07,2013-05-11 11:35:00,
2013-05-11 06:40:00,44.3,43.2,29.80,SSW,194,2.0,6.0,96,0.00, +TSGR FG,SKC,-99.99,VWS V12.07,2013-05-11 11:40:00,
2013-05-11 06:45:00,44.5,43.4,29.80,South,188,5.0,8.0,96,0.00, +TSGR FG,SKC,-99.99,VWS V12.07,2013-05-11 11:45:00,
2013-05-11 06:50:00,44.7,43.6,29.80,SSW,192,3.0,8.0,96,0.00, +TSGR FG,SKC,-99.99,VWS V12.07,2013-05-11 11:50:00,
2013-05-11 06:55:00,44.8,43.7,29.80,South,188,0.0,5.0,96,0.00, +TSGR FG,SKC,-99.99,VWS V12.07,2013-05-11 11:55:00,
2013-05-11 07:00:00,45.0,43.9,29.80,SSW,198,2.0,7.0,96,0.00, +TSGR FG,SKC,-99.99,VWS V12.07,2013-05-11 12:00:00,
2013-05-11 07:05:00,45.2,44.1,29.79,SW,225,3.0,5.0,96,0.00, +TSGR FG,SKC,-99.99,VWS V12.07,2013-05-11 12:05:00,
2013-05-11 07:10:00,45.4,44.3,29.79,SSW,209,3.0,6.0,96,0.00, +TSGR FG,SKC,-99.99,VWS V12.07,2013-05-11 12:10:00,
2013-05-11 07:15:00,45.6,44.5,29.79,SW,227,3.0,7.0,96,0.00, +TSGR FG,SKC,-99.99,VWS V12.07,2013-05-11 12:15:00,
2013-05-11 07:20:00,45.9,45.1,29.79,SSW,209,1.0,7.0,97,0.00, +TSGR FG,SKC,-99.99,VWS V12.07,2013-05-11 12:20:00,
2013-05-11 07:25:00,46.1,45.0,29.78,West,262,1.0,7.0,96,0.00, +TSGR FG,SKC,-99.99,VWS V12.07,2013-05-11 12:25:00,
2013-05-11 07:30:00,46.4,45.6,29.78,West,269,3.0,7.0,97,0.00, +TSGR FG,SKC,-99.99,VWS V12.07,2013-05-11 12:30:00,
2013-05-11 07:35:00,46.7,45.6,29.78,SW,228,3.0,11.0,96,0.00, +TSGR FG,SKC,-99.99,VWS V12.07,2013-05-11 12:35:00,
2013-05-11 07:40:00,47.0,46.2,29.78,WSW,246,3.0,11.0,97,0.00, +TSGR FG,SKC,-99.99,VWS V12.07,2013-05-11 12:40:00,
2013-05-11 07:45:00,47.0,45.9,29.77,WSW,237,5.0,7.0,96,0.00, +TSGR FG,SKC,-99.99,VWS V12.07,2013-05-11 12:45:00,
2013-05-11 07:50:00,47.1,46.0,29.77,SSW,213,0.0,8.0,96,0.00, +TSGR FG,SKC,-99.99,VWS V12.07,2013-05-11 12:50:00,
2013-05-11 07:55:00,47.1,46.0,29.77,WSW,241,0.0,6.0,96,0.00, +TSGR FG,SKC,-99.99,VWS V12.07,2013-05-11 12:55:00,
2013-05-11 08:05:00,47.4,46.3,29.76,NW,307,0.0,1.0,96,0.00, +TSGR FG,SKC,-99.99,VWS V12.07,2013-05-11 13:05:00,
2013-05-11 08:10:00,47.6,46.5,29.76,NW,307,1.0,2.0,96,0.00, +TSGR FG,SKC,-99.99,VWS V12.07,2013-05-11 13:10:00,
2013-05-11 08:15:00,47.8,46.7,29.76,NW,307,0.0,1.0,96,0.00, +TSGR FG,SKC,-99.99,VWS V12.07,2013-05-11 13:15:00,
2013-05-11 08:20:00,48.1,47.0,29.75,NW,307,0.0,2.0,96,0.00, +TSGR FG,SKC,-99.99,VWS V12.07,2013-05-11 13:20:00,
2013-05-11 08:25:00,48.6,47.5,29.76,SW,225,1.0,3.0,96,0.00, +TSGR FG,SKC,-99.99,VWS V12.07,2013-05-11 13:25:00,
2013-05-11 08:30:00,49.2,48.1,29.76,WSW,252,1.0,4.0,96,0.00, +TSGR FG,SKC,-99.99,VWS V12.07,2013-05-11 13:30:00,
2013-05-11 08:35:00,49.6,48.5,29.76,South,170,1.0,8.0,96,0.00, +TSGR FG,SKC,-99.99,VWS V12.07,2013-05-11 13:35:00,
2013-05-11 08:40:00,50.1,49.0,29.75,SSW,198,0.0,8.0,96,0.00, +TSGR FG,SKC,-99.99,VWS V12.07,2013-05-11 13:40:00,
2013-05-11 08:45:00,50.6,49.5,29.75,South,186,4.0,11.0,96,0.00, +TSGR FG,SKC,-99.99,VWS V12.07,2013-05-11 13:45:00,
2013-05-11 08:50:00,50.9,49.5,29.75,WNW,291,3.0,11.0,95,0.00, +TSGR FG,SKC,-99.99,VWS V12.07,2013-05-11 13:50:00,
2013-05-11 08:55:00,51.2,49.8,29.74,SSE,158,4.0,13.0,95,0.00, +TSGR FG,SKC,-99.99,VWS V12.07,2013-05-11 13:55:00,
2013-05-11 09:00:00,51.6,50.2,29.74,SW,232,4.0,13.0,95,0.00, +TSGR FG,SKC,-99.99,VWS V12.07,2013-05-11 14:00:00,
2013-05-11 09:05:00,51.6,49.9,29.74,South,187,9.0,9.0,94,0.00, +TSGR FG,SKC,-99.99,VWS V12.07,2013-05-11 14:05:00,
2013-05-11 09:10:00,51.4,49.5,29.73,West,259,2.0,11.0,93,0.01, +TSGR FG,SKC,-99.99,VWS V12.07,2013-05-11 14:10:00,
2013-05-11 09:15:00,51.7,49.8,29.73,WSW,257,4.0,7.0,93,0.01, +TSGR FG,SKC,-99.99,VWS V12.07,2013-05-11 14:15:00,
2013-05-11 09:20:00,51.5,49.3,29.73,SSW,205,7.0,13.0,92,0.01, +TSGR FG,SKC,-99.99,VWS V12.07,2013-05-11 14:20:00,
2013-05-11 09:25:00,51.4,49.2,29.74,South,184,8.0,10.0,92,0.01, +TSGR FG,SKC,-99.99,VWS V12.07,2013-05-11 14:25:00,
2013-05-11 09:30:00,51.3,49.1,29.73,South,182,3.0,10.0,92,0.01, +TSGR FG,SKC,-99.99,VWS V12.07,2013-05-11 14:30:00,
2013-05-11 09:35:00,51.3,49.1,29.73,West,271,1.0,11.0,92,0.01, +TSGR FG,SKC,-99.99,VWS V12.07,2013-05-11 14:35:00,
2013-05-11 09:40:00,51.3,49.1,29.73,SSW,198,4.0,11.0,92,0.01, +TSGR FG,SKC,-99.99,VWS V12.07,2013-05-11 14:40:00,
2013-05-11 09:45:00,51.3,49.1,29.73,SW,230,2.0,9.0,92,0.01, +TSGR FG,SKC,-99.99,VWS V12.07,2013-05-11 14:45:00,
2013-05-11 09:50:00,51.4,49.2,29.73,SSE,150,4.0,9.0,92,0.01, +TSGR FG,SKC,-99.99,VWS V12.07,2013-05-11 14:50:00,
2013-05-11 09:55:00,51.5,49.3,29.72,South,186,6.0,6.0,92,0.01, +TSGR FG,SKC,-99.99,VWS V12.07,2013-05-11 14:55:00,
2013-05-11 10:00:00,52.2,50.0,29.72,South,190,2.0,12.0,92,0.01, +TSGR FG,SKC,-99.99,VWS V12.07,2013-05-11 15:00:00,
2013-05-11 10:10:00,53.2,50.3,29.72,NW,320,3.0,8.0,90,0.01, +TSGR FG,SKC,-99.99,VWS V12.07,2013-05-11 15:10:00,
2013-05-11 10:15:00,53.4,50.2,29.72,North,355,1.0,9.0,89,0.00, +TSGR FG,SKC,-99.99,VWS V12.07,2013-05-11 15:15:00,
2013-05-11 10:20:00,53.4,50.2,29.72,SW,222,1.0,9.0,89,0.00, +TSGR FG,SKC,-99.99,VWS V12.07,2013-05-11 15:20:00,
2013-05-11 10:25:00,53.3,49.8,29.72,NW,309,2.0,7.0,88,0.00, +TSGR FG,SKC,-99.99,VWS V12.07,2013-05-11 15:25:00,
2013-05-11 10:30:00,53.1,49.7,29.72,NNE,28,3.0,7.0,88,0.00, +TSGR FG,SKC,-99.99,VWS V12.07,2013-05-11 15:30:00,
2013-05-11 10:35:00,53.0,49.5,29.72,WNW,291,3.0,7.0,88,0.00, +TSGR FG,SKC,-99.99,VWS V12.07,2013-05-11 15:35:00,
2013-05-11 10:40:00,52.9,49.5,29.72,SW,214,2.0,7.0,88,0.00, +TSGR FG,SKC,-99.99,VWS V12.07,2013-05-11 15:40:00,
2013-05-11 10:45:00,52.8,49.3,29.72,NNW,328,4.0,8.0,88,0.00, +TSGR FG,SKC,-99.99,VWS V12.07,2013-05-11 15:45:00,
2013-05-11 10:50:00,52.8,49.7,29.73,WSW,250,5.0,10.0,89,0.00, +TSGR FG,SKC,-99.99,VWS V12.07,2013-05-11 15:50:00,
2013-05-11 10:55:00,50.8,45.8,29.75,NW,310,7.0,12.0,83,0.00, +TSGR FG,SKC,-99.99,VWS V12.07,2013-05-11 15:55:00,
2013-05-11 11:00:00,49.2,44.6,29.75,NW,308,8.0,15.0,84,0.00, +TSGR FG,SKC,-99.99,VWS V12.07,2013-05-11 16:00:00,
2013-05-11 11:05:00,48.7,44.1,29.75,NNW,331,9.0,14.0,84,0.00, +TSGR FG,SKC,-99.99,VWS V12.07,2013-05-11 16:05:00,
2013-05-11 11:10:00,48.1,43.2,29.76,West,281,3.0,16.0,83,0.00, +TSGR FG,SKC,-99.99,VWS V12.07,2013-05-11 16:10:00,
2013-05-11 11:15:00,47.5,42.6,29.76,NNE,15,8.0,14.0,83,0.00, +TSGR FG,SKC,-99.99,VWS V12.07,2013-05-11 16:15:00,
2013-05-11 11:20:00,46.9,42.3,29.77,NW,321,12.0,18.0,84,0.00, +TSGR FG,SKC,-99.99,VWS V12.07,2013-05-11 16:20:00,
2013-05-11 11:25:00,46.3,42.3,29.78,NW,320,4.0,15.0,86,0.00, +TSGR FG,SKC,-99.99,VWS V12.07,2013-05-11 16:25:00,
2013-05-11 11:30:00,46.0,42.3,29.78,South,177,5.0,15.0,87,0.00, +TSGR FG,SKC,-99.99,VWS V12.07,2013-05-11 16:30:00,
2013-05-11 11:35:00,45.9,42.0,29.78,NNW,332,7.0,15.0,86,0.00, +TSGR FG,SKC,-99.99,VWS V12.07,2013-05-11 16:35:00,
2013-05-11 11:40:00,46.0,42.0,29.79,North,5,3.0,15.0,86,0.00, +TSGR FG,SKC,-99.99,VWS V12.07,2013-05-11 16:40:00,
2013-05-11 11:45:00,46.1,41.5,29.80,West,271,14.0,14.0,84,0.00, +TSGR FG,SKC,-99.99,VWS V12.07,2013-05-11 16:45:00,
2013-05-11 11:50:00,46.3,41.1,29.80,WNW,284,11.0,22.0,82,0.00, +TSGR FG,SKC,-99.99,VWS V12.07,2013-05-11 16:50:00,
2013-05-11 11:55:00,47.0,41.2,29.80,NNW,344,11.0,15.0,80,0.00, +TSGR FG,SKC,-99.99,VWS V12.07,2013-05-11 16:55:00,
2013-05-11 12:00:00,47.3,40.1,29.80,West,280,5.0,15.0,76,0.00, +TSGR FG,SKC,-99.99,VWS V12.07,2013-05-11 17:00:00,
2013-05-11 12:05:00,47.6,40.4,29.80,NNW,338,5.0,19.0,76,0.00, +TSGR FG,SKC,-99.99,VWS V12.07,2013-05-11 17:05:00,
2013-05-11 12:10:00,48.1,40.9,29.80,WNW,303,10.0,19.0,76,0.00, +TSGR FG,SKC,-99.99,VWS V12.07,2013-05-11 17:10:00,
2013-05-11 12:15:00,48.4,40.2,29.80,NNW,338,7.0,15.0,73,0.00, +TSGR FG,SKC,-99.99,VWS V12.07,2013-05-11 17:15:00,
2013-05-11 12:20:00,49.0,40.7,29.80,NNW,330,11.0,15.0,73,0.00, +TSGR FG,SKC,-99.99,VWS V12.07,2013-05-11 17:20:00,
2013-05-11 12:25:00,48.7,40.1,29.81,North,350,5.0,14.0,72,0.00, +TSGR FG,SKC,-99.99,VWS V12.07,2013-05-11 17:25:00,
2013-05-11 12:30:00,48.8,40.2,29.81,West,275,5.0,14.0,72,0.00, +TSGR FG,SKC,-99.99,VWS V12.07,2013-05-11 17:30:00,
2013-05-11 12:35:00,49.0,40.7,29.81,NE,56,6.0,10.0,73,0.00, +TSGR FG,SKC,-99.99,VWS V12.07,2013-05-11 17:35:00,
2013-05-11 12:40:00,49.2,40.2,29.81,NW,323,5.0,12.0,71,0.00, +TSGR FG,SKC,-99.99,VWS V12.07,2013-05-11 17:40:00,
2013-05-11 12:45:00,50.3,40.9,29.81,WNW,291,7.0,14.0,70,0.00, +TSGR FG,SKC,-99.99,VWS V12.07,2013-05-11 17:45:00,
2013-05-11 12:50:00,50.6,39.3,29.81,NNW,331,7.0,14.0,65,0.00, +TSGR FG,SKC,-99.99,VWS V12.07,2013-05-11 17:50:00,
2013-05-11 12:55:00,50.0,37.5,29.81,West,265,2.0,16.0,62,0.00, +TSGR FG,SKC,-99.99,VWS V12.07,2013-05-11 17:55:00,
2013-05-11 13:00:00,50.8,39.9,29.81,NNE,15,7.0,16.0,66,0.00, +TSGR FG,SKC,-99.99,VWS V12.07,2013-05-11 18:00:00,
2013-05-11 13:05:00,51.0,38.0,29.81,NW,319,4.0,16.0,61,0.00, +TSGR FG,SKC,-99.99,VWS V12.07,2013-05-11 18:05:00,
2013-05-11 13:10:00,51.0,37.6,29.81,NNW,329,9.0,16.0,60,0.00, +TSGR FG,SKC,-99.99,VWS V12.07,2013-05-11 18:10:00,
2013-05-11 13:15:00,50.9,37.5,29.81,NW,313,4.0,19.0,60,0.00, +TSGR FG,SKC,-99.99,VWS V12.07,2013-05-11 18:15:00,
2013-05-11 13:20:00,51.0,37.6,29.82,NNW,334,6.0,19.0,60,0.00, +TSGR FG,SKC,-99.99,VWS V12.07,2013-05-11 18:20:00,
2013-05-11 13:25:00,51.6,38.6,29.82,West,261,11.0,11.0,61,0.00, +TSGR FG,SKC,-99.99,VWS V12.07,2013-05-11 18:25:00,
2013-05-11 13:30:00,51.7,37.8,29.82,WSW,257,6.0,14.0,59,0.00, +TSGR FG,SKC,-99.99,VWS V12.07,2013-05-11 18:30:00,
2013-05-11 13:35:00,51.0,37.2,29.82,North,349,4.0,14.0,59,0.00, +TSGR FG,SKC,-99.99,VWS V12.07,2013-05-11 18:35:00,
2013-05-11 13:40:00,51.7,38.7,29.83,West,280,3.0,14.0,61,0.00, +TSGR FG,SKC,-99.99,VWS V12.07,2013-05-11 18:40:00,
2013-05-11 13:45:00,52.1,36.9,29.83,NNW,340,12.0,14.0,56,0.00, +TSGR FG,SKC,-99.99,VWS V12.07,2013-05-11 18:45:00,
2013-05-11 13:50:00,51.9,37.2,29.83,NNE,13,5.0,14.0,57,0.00, +TSGR FG,SKC,-99.99,VWS V12.07,2013-05-11 18:50:00,
2013-05-11 13:55:00,52.1,36.0,29.83,WSW,238,5.0,11.0,54,0.00, +TSGR FG,SKC,-99.99,VWS V12.07,2013-05-11 18:55:00,
2013-05-11 14:00:00,52.2,35.1,29.84,North,9,13.0,19.0,52,0.00, +TSGR FG,SKC,-99.99,VWS V12.07,2013-05-11 19:00:00,
2013-05-11 14:05:00,52.2,35.1,29.83,WNW,298,4.0,15.0,52,0.00, +TSGR FG,SKC,-99.99,VWS V12.07,2013-05-11 19:05:00,
2013-05-11 14:10:00,52.2,35.1,29.83,NNW,346,3.0,15.0,52,0.00, +TSGR FG,SKC,-99.99,VWS V12.07,2013-05-11 19:10:00,
2013-05-11 14:15:00,52.5,33.9,29.84,West,274,10.0,13.0,49,0.00, +TSGR FG,SKC,-99.99,VWS V12.07,2013-05-11 19:15:00,
2013-05-11 14:20:00,52.0,34.0,29.83,NW,321,5.0,18.0,50,0.00, +TSGR FG,SKC,-99.99,VWS V12.07,2013-05-11 19:20:00,
2013-05-11 14:25:00,52.0,34.0,29.84,NNE,32,4.0,15.0,50,0.00, +TSGR FG,SKC,-99.99,VWS V12.07,2013-05-11 19:25:00,
2013-05-11 14:30:00,52.7,34.6,29.84,North,355,2.0,15.0,50,0.00, +TSGR FG,SKC,-99.99,VWS V12.07,2013-05-11 19:30:00,
2013-05-11 14:35:00,52.0,34.0,29.84,WNW,300,11.0,13.0,50,0.00, +TSGR FG,SKC,-99.99,VWS V12.07,2013-05-11 19:35:00,
2013-05-11 14:40:00,51.8,33.3,29.84,WNW,287,4.0,15.0,49,0.00, +TSGR FG,SKC,-99.99,VWS V12.07,2013-05-11 19:40:00,
2013-05-11 14:45:00,52.4,32.8,29.84,WNW,297,6.0,15.0,47,0.00, +TSGR FG,SKC,-99.99,VWS V12.07,2013-05-11 19:45:00,
2013-05-11 14:50:00,52.0,31.3,29.85,NW,324,3.0,15.0,45,0.00, +TSGR FG,SKC,-99.99,VWS V12.07,2013-05-11 19:50:00,
2013-05-11 14:55:00,51.8,32.2,29.84,NNW,334,2.0,11.0,47,0.00, +TSGR FG,SKC,-99.99,VWS V12.07,2013-05-11 19:55:00,
2013-05-11 15:00:00,51.7,32.7,29.85,NW,326,6.0,13.0,48,0.00, +TSGR FG,SKC,-99.99,VWS V12.07,2013-05-11 20:00:00,
2013-05-11 15:05:00,51.7,31.6,29.85,NW,322,6.0,16.0,46,0.00, +TSGR FG,SKC,-99.99,VWS V12.07,2013-05-11 20:05:00,
2013-05-11 15:10:00,51.3,31.8,29.85,NW,309,8.0,16.0,47,0.00, +TSGR FG,SKC,-99.99,VWS V12.07,2013-05-11 20:10:00,
2013-05-11 15:15:00,51.1,31.6,29.85,NW,319,8.0,13.0,47,0.00, +TSGR FG,SKC,-99.99,VWS V12.07,2013-05-11 20:15:00,
2013-05-11 15:20:00,51.8,33.8,29.84,West,276,6.0,13.0,50,0.00, +TSGR FG,SKC,-99.99,VWS V12.07,2013-05-11 20:20:00,
2013-05-11 15:25:00,52.2,33.1,29.84,WNW,292,2.0,8.0,48,0.00, +TSGR FG,SKC,-99.99,VWS V12.07,2013-05-11 20:25:00,
2013-05-11 15:30:00,52.0,31.9,29.84,West,275,6.0,11.0,46,0.00, +TSGR FG,SKC,-99.99,VWS V12.07,2013-05-11 20:30:00,
2013-05-11 15:35:00,52.0,33.5,29.85,WNW,286,4.0,10.0,49,0.00, +TSGR FG,SKC,-99.99,VWS V12.07,2013-05-11 20:35:00,
2013-05-11 15:40:00,52.4,33.3,29.85,WNW,287,3.0,10.0,48,0.00, +TSGR FG,SKC,-99.99,VWS V12.07,2013-05-11 20:40:00,
2013-05-11 15:45:00,51.9,30.7,29.85,NNW,329,5.0,10.0,44,0.00, +TSGR FG,SKC,-99.99,VWS V12.07,2013-05-11 20:45:00,
2013-05-11 15:50:00,51.0,32.5,29.86,WNW,290,3.0,14.0,49,0.00, +TSGR FG,SKC,-99.99,VWS V12.07,2013-05-11 20:50:00,
2013-05-11 15:55:00,50.2,32.8,29.85,NW,314,1.0,19.0,51,0.00, +TSGR FG,SKC,-99.99,VWS V12.07,2013-05-11 20:55:00,
2013-05-11 16:00:00,51.1,33.6,29.85,East,85,8.0,19.0,51,0.00, +TSGR FG,SKC,-99.99,VWS V12.07,2013-05-11 21:00:00,
2013-05-11 16:05:00,51.6,31.0,29.85,WNW,298,4.0,12.0,45,0.00, +TSGR FG,SKC,-99.99,VWS V12.07,2013-05-11 21:05:00,
2013-05-11 16:10:00,50.9,30.3,29.86,NW,313,8.0,22.0,45,0.00, +TSGR FG,SKC,-99.99,VWS V12.07,2013-05-11 21:10:00,
2013-05-11 16:15:00,50.4,32.5,29.86,WNW,294,1.0,15.0,50,0.00, +TSGR FG,SKC,-99.99,VWS V12.07,2013-05-11 21:15:00,
2013-05-11 16:20:00,50.3,33.4,29.86,WSW,248,3.0,15.0,52,0.00, +TSGR FG,SKC,-99.99,VWS V12.07,2013-05-11 21:20:00,
2013-05-11 16:25:00,50.2,32.8,29.87,North,355,10.0,16.0,51,0.00, +TSGR FG,SKC,-99.99,VWS V12.07,2013-05-11 21:25:00,
2013-05-11 16:30:00,50.1,35.5,29.87,WSW,254,6.0,16.0,57,0.00, +TSGR FG,SKC,-99.99,VWS V12.07,2013-05-11 21:30:00,
2013-05-11 16:35:00,50.6,33.6,29.87,NW,304,6.0,16.0,52,0.00, +TSGR FG,SKC,-99.99,VWS V12.07,2013-05-11 21:35:00,
2013-05-11 16:40:00,51.2,31.7,29.86,NW,323,5.0,16.0,47,0.00, +TSGR FG,SKC,-99.99,VWS V12.07,2013-05-11 21:40:00,
2013-05-11 16:45:00,51.9,31.8,29.86,SW,227,2.0,9.0,46,0.00, +TSGR FG,SKC,-99.99,VWS V12.07,2013-05-11 21:45:00,
2013-05-11 16:50:00,51.7,31.1,29.86,NW,325,8.0,16.0,45,0.00, +TSGR FG,SKC,-99.99,VWS V12.07,2013-05-11 21:50:00,
2013-05-11 16:55:00,51.9,31.8,29.87,NNW,342,5.0,10.0,46,0.00, +TSGR FG,SKC,-99.99,VWS V12.07,2013-05-11 21:55:00,
2013-05-11 17:00:00,52.3,31.0,29.87,NW,323,6.0,14.0,44,0.00, +TSGR FG,SKC,-99.99,VWS V12.07,2013-05-11 22:00:00,
2013-05-11 17:05:00,52.3,31.6,29.87,West,275,3.0,16.0,45,0.00, +TSGR FG,SKC,-99.99,VWS V12.07,2013-05-11 22:05:00,
2013-05-11 17:10:00,52.3,30.5,29.87,West,268,2.0,16.0,43,0.00, +TSGR FG,SKC,-99.99,VWS V12.07,2013-05-11 22:10:00,
2013-05-11 17:15:00,52.4,31.1,29.87,North,351,2.0,12.0,44,0.00, +TSGR FG,SKC,-99.99,VWS V12.07,2013-05-11 22:15:00,
2013-05-11 17:20:00,51.9,31.2,29.87,NW,326,12.0,15.0,45,0.00, +TSGR FG,SKC,-99.99,VWS V12.07,2013-05-11 22:20:00,
2013-05-11 17:30:00,49.7,30.8,29.89,NW,316,7.0,17.0,48,0.00, +TSGR FG,SKC,-99.99,VWS V12.07,2013-05-11 22:30:00,
2013-05-11 17:35:00,49.4,30.0,29.88,NW,307,6.0,11.0,47,0.00, +TSGR FG,SKC,-99.99,VWS V12.07,2013-05-11 22:35:00,
2013-05-11 17:40:00,49.5,30.6,29.88,North,355,3.0,12.0,48,0.00, +TSGR FG,SKC,-99.99,VWS V12.07,2013-05-11 22:40:00,
2013-05-11 17:45:00,50.2,29.7,29.88,NW,311,2.0,12.0,45,0.00, +TSGR FG,SKC,-99.99,VWS V12.07,2013-05-11 22:45:00,
2013-05-11 17:50:00,50.8,30.2,29.88,NW,304,4.0,17.0,45,0.00, +TSGR FG,SKC,-99.99,VWS V12.07,2013-05-11 22:50:00,
2013-05-11 17:55:00,51.0,29.3,29.89,WNW,302,3.0,13.0,43,0.00, +TSGR FG,SKC,-99.99,VWS V12.07,2013-05-11 22:55:00,
2013-05-11 18:00:00,50.7,29.0,29.89,WNW,298,2.0,13.0,43,0.00, +TSGR FG,SKC,-99.99,VWS V12.07,2013-05-11 23:00:00,
2013-05-11 18:05:00,50.8,29.1,29.89,NNW,339,2.0,10.0,43,0.00, +TSGR FG,SKC,-99.99,VWS V12.07,2013-05-11 23:05:00,
2013-05-11 18:10:00,50.9,28.6,29.89,WNW,303,4.0,10.0,42,0.00, +TSGR FG,SKC,-99.99,VWS V12.07,2013-05-11 23:10:00,
2013-05-11 18:15:00,50.4,27.6,29.89,NNW,335,5.0,9.0,41,0.00, +TSGR FG,SKC,-99.99,VWS V12.07,2013-05-11 23:15:00,
2013-05-11 18:20:00,49.5,30.1,29.89,West,271,3.0,14.0,47,0.00, +TSGR FG,SKC,-99.99,VWS V12.07,2013-05-11 23:20:00,
2013-05-11 18:25:00,49.1,30.8,29.89,West,270,2.0,8.0,49,0.00, +TSGR FG,SKC,-99.99,VWS V12.07,2013-05-11 23:25:00,
2013-05-11 18:30:00,48.8,30.0,29.89,NW,309,3.0,11.0,48,0.00, +TSGR FG,SKC,-99.99,VWS V12.07,2013-05-11 23:30:00,
2013-05-11 18:35:00,49.0,30.7,29.89,NW,313,1.0,9.0,49,0.00, +TSGR FG,SKC,-99.99,VWS V12.07,2013-05-11 23:35:00,
2013-05-11 18:40:00,49.5,31.1,29.89,WNW,287,4.0,9.0,49,0.00, +TSGR FG,SKC,-99.99,VWS V12.07,2013-05-11 23:40:00,
2013-05-11 18:45:00,49.7,30.8,29.90,WSW,243,7.0,7.0,48,0.00, +TSGR FG,SKC,-99.99,VWS V12.07,2013-05-11 23:45:00,
2013-05-11 18:50:00,49.7,29.2,29.90,NW,309,1.0,7.0,45,0.00, +TSGR FG,SKC,-99.99,VWS V12.07,2013-05-11 23:50:00,
2013-05-11 18:55:00,49.6,28.6,29.90,WNW,296,3.0,11.0,44,0.00, +TSGR FG,SKC,-99.99,VWS V12.07,2013-05-11 23:55:00,
2013-05-11 19:00:00,49.3,29.4,29.91,NW,316,11.0,14.0,46,0.00, +TSGR FG,SKC,-99.99,VWS V12.07,2013-05-12 00:00:00,
2013-05-11 19:05:00,48.3,30.5,29.92,NNW,347,8.0,12.0,50,0.00, +TSGR FG,SKC,-99.99,VWS V12.07,2013-05-12 00:05:00,
2013-05-11 19:10:00,47.0,32.1,29.92,West,279,2.0,14.0,56,0.00, +TSGR FG,SKC,-99.99,VWS V12.07,2013-05-12 00:10:00,
2013-05-11 19:15:00,46.8,32.0,29.91,NNE,20,3.0,8.0,56,0.00, +TSGR FG,SKC,-99.99,VWS V12.07,2013-05-12 00:15:00,
2013-05-11 19:20:00,46.9,32.5,29.91,NNW,335,3.0,8.0,57,0.00, +TSGR FG,SKC,-99.99,VWS V12.07,2013-05-12 00:20:00,
2013-05-11 19:25:00,47.0,33.0,29.91,NW,306,4.0,5.0,58,0.00, +TSGR FG,SKC,-99.99,VWS V12.07,2013-05-12 00:25:00,
2013-05-11 19:30:00,47.2,32.3,29.91,NNE,23,7.0,10.0,56,0.00, +TSGR FG,SKC,-99.99,VWS V12.07,2013-05-12 00:30:00,
2013-05-11 19:35:00,47.3,32.0,29.91,NNW,342,4.0,10.0,55,0.00, +TSGR FG,SKC,-99.99,VWS V12.07,2013-05-12 00:35:00,
2013-05-11 19:40:00,47.4,31.1,29.91,NNW,329,4.0,10.0,53,0.00, +TSGR FG,SKC,-99.99,VWS V12.07,2013-05-12 00:40:00,
2013-05-11 19:45:00,47.3,31.5,29.91,WNW,301,1.0,5.0,54,0.00, +TSGR FG,SKC,-99.99,VWS V12.07,2013-05-12 00:45:00,
2013-05-11 19:50:00,47.1,32.2,29.91,NNW,330,3.0,5.0,56,0.00, +TSGR FG,SKC,-99.99,VWS V12.07,2013-05-12 00:50:00,
2013-05-11 19:55:00,46.9,31.6,29.91,West,281,4.0,7.0,55,0.00, +TSGR FG,SKC,-99.99,VWS V12.07,2013-05-12 00:55:00,
2013-05-11 20:00:00,46.9,31.1,29.91,WNW,295,1.0,13.0,54,0.00, +TSGR FG,SKC,-99.99,VWS V12.07,2013-05-12 01:00:00,
2013-05-11 20:05:00,46.9,31.6,29.91,NNW,331,5.0,9.0,55,0.00, +TSGR FG,SKC,-99.99,VWS V12.07,2013-05-12 01:05:00,
2013-05-11 20:10:00,46.7,31.4,29.91,WNW,287,3.0,9.0,55,0.00, +TSGR FG,SKC,-99.99,VWS V12.07,2013-05-12 01:10:00,
2013-05-11 20:15:00,46.6,30.9,29.92,NW,309,2.0,12.0,54,0.00, +TSGR FG,SKC,-99.99,VWS V12.07,2013-05-12 01:15:00,
2013-05-11 20:20:00,46.6,30.9,29.92,WNW,287,1.0,12.0,54,0.00, +TSGR FG,SKC,-99.99,VWS V12.07,2013-05-12 01:20:00,
2013-05-11 20:25:00,46.4,30.2,29.92,NNW,342,4.0,10.0,53,0.00, +TSGR FG,SKC,-99.99,VWS V12.07,2013-05-12 01:25:00,
2013-05-11 20:30:00,46.3,31.0,29.92,NNW,345,4.0,10.0,55,0.00, +TSGR FG,SKC,-99.99,VWS V12.07,2013-05-12 01:30:00,
2013-05-11 20:35:00,46.2,30.9,29.92,WNW,284,2.0,8.0,55,0.00, +TSGR FG,SKC,-99.99,VWS V12.07,2013-05-12 01:35:00,
2013-05-11 20:40:00,46.0,30.8,29.92,NNW,338,3.0,8.0,55,0.00, +TSGR FG,SKC,-99.99,VWS V12.07,2013-05-12 01:40:00,
2013-05-11 20:45:00,45.8,31.0,29.92,West,272,1.0,7.0,56,0.00, +TSGR FG,SKC,-99.99,VWS V12.07,2013-05-12 01:45:00,
2013-05-11 20:50:00,45.8,31.0,29.93,WNW,292,1.0,8.0,56,0.00, +TSGR FG,SKC,-99.99,VWS V12.07,2013-05-12 01:50:00,
2013-05-11 20:55:00,45.7,30.5,29.93,WNW,294,2.0,7.0,55,0.00, +TSGR FG,SKC,-99.99,VWS V12.07,2013-05-12 01:55:00,
2013-05-11 21:00:00,45.6,30.4,29.93,WNW,286,3.0,8.0,55,0.00, +TSGR FG,SKC,-99.99,VWS V12.07,2013-05-12 02:00:00,
2013-05-11 21:05:00,45.5,30.7,29.93,NW,321,0.0,8.0,56,0.00, +TSGR FG,SKC,-99.99,VWS V12.07,2013-05-12 02:05:00,
2013-05-11 21:10:00,45.3,30.5,29.93,West,269,0.0,9.0,56,0.00, +TSGR FG,SKC,-99.99,VWS V12.07,2013-05-12 02:10:00,
2013-05-11 21:15:00,45.2,30.5,29.94,NNW,327,2.0,6.0,56,0.00, +TSGR FG,SKC,-99.99,VWS V12.07,2013-05-12 02:15:00,
2013-05-11 21:20:00,45.0,30.7,29.94,WSW,249,6.0,7.0,57,0.00, +TSGR FG,SKC,-99.99,VWS V12.07,2013-05-12 02:20:00,
2013-05-11 21:30:00,44.8,30.5,29.94,NW,306,3.0,8.0,57,0.00, +TSGR FG,SKC,-99.99,VWS V12.07,2013-05-12 02:30:00,
2013-05-11 21:35:00,44.7,31.3,29.94,WNW,288,1.0,6.0,59,0.00, +TSGR FG,SKC,-99.99,VWS V12.07,2013-05-12 02:35:00,
2013-05-11 21:40:00,44.4,31.0,29.94,WNW,282,3.0,7.0,59,0.00, +TSGR FG,SKC,-99.99,VWS V12.07,2013-05-12 02:40:00,
2013-05-11 21:45:00,44.2,31.2,29.94,WSW,250,1.0,5.0,60,0.00, +TSGR FG,SKC,-99.99,VWS V12.07,2013-05-12 02:45:00,
2013-05-11 21:50:00,43.9,31.3,29.94,WNW,300,0.0,5.0,61,0.00, +TSGR FG,SKC,-99.99,VWS V12.07,2013-05-12 02:50:00,
2013-05-11 21:55:00,43.7,31.1,29.94,WNW,289,1.0,6.0,61,0.00, +TSGR FG,SKC,-99.99,VWS V12.07,2013-05-12 02:55:00,
2013-05-11 22:00:00,43.7,31.1,29.94,NNW,331,1.0,6.0,61,0.00, +TSGR FG,SKC,-99.99,VWS V12.07,2013-05-12 03:00:00,
2013-05-11 22:05:00,43.7,31.1,29.94,West,279,2.0,6.0,61,0.00, +TSGR FG,SKC,-99.99,VWS V12.07,2013-05-12 03:05:00,
2013-05-11 22:10:00,43.7,31.1,29.94,West,281,2.0,6.0,61,0.00, +TSGR FG,SKC,-99.99,VWS V12.07,2013-05-12 03:10:00,
2013-05-11 22:15:00,43.6,31.0,29.94,NW,314,2.0,6.0,61,0.00, +TSGR FG,SKC,-99.99,VWS V12.07,2013-05-12 03:15:00,
2013-05-11 22:20:00,43.5,31.4,29.94,West,262,7.0,7.0,62,0.00, +TSGR FG,SKC,-99.99,VWS V12.07,2013-05-12 03:20:00,
2013-05-11 22:25:00,43.5,31.4,29.94,WNW,299,1.0,6.0,62,0.00, +TSGR FG,SKC,-99.99,VWS V12.07,2013-05-12 03:25:00,
2013-05-11 22:30:00,43.5,31.4,29.94,WNW,286,3.0,6.0,62,0.00, +TSGR FG,SKC,-99.99,VWS V12.07,2013-05-12 03:30:00,
2013-05-11 22:35:00,43.4,31.3,29.94,WNW,301,1.0,5.0,62,0.00, +TSGR FG,SKC,-99.99,VWS V12.07,2013-05-12 03:35:00,
2013-05-11 22:40:00,43.3,31.2,29.94,WNW,302,0.0,5.0,62,0.00, +TSGR FG,SKC,-99.99,VWS V12.07,2013-05-12 03:40:00,
2013-05-11 22:45:00,43.3,31.2,29.94,North,5,2.0,6.0,62,0.00, +TSGR FG,SKC,-99.99,VWS V12.07,2013-05-12 03:45:00,
2013-05-11 22:50:00,43.3,31.2,29.94,WNW,284,5.0,10.0,62,0.00, +TSGR FG,SKC,-99.99,VWS V12.07,2013-05-12 03:50:00,
2013-05-11 22:55:00,43.5,31.0,29.94,WNW,303,3.0,10.0,61,0.00, +TSGR FG,SKC,-99.99,VWS V12.07,2013-05-12 03:55:00,
2013-05-11 23:00:00,43.4,31.3,29.94,West,261,3.0,10.0,62,0.00, +TSGR FG,SKC,-99.99,VWS V12.07,2013-05-12 04:00:00,
2013-05-11 23:05:00,43.4,30.9,29.94,NNW,348,3.0,11.0,61,0.00, +TSGR FG,SKC,-99.99,VWS V12.07,2013-05-12 04:05:00,
2013-05-11 23:10:00,43.3,31.2,29.94,WSW,244,3.0,11.0,62,0.00, +TSGR FG,SKC,-99.99,VWS V12.07,2013-05-12 04:10:00,
2013-05-11 23:15:00,43.2,31.1,29.94,WSW,251,1.0,10.0,62,0.00, +TSGR FG,SKC,-99.99,VWS V12.07,2013-05-12 04:15:00,
2013-05-11 23:20:00,43.2,31.5,29.94,NW,306,2.0,10.0,63,0.00, +TSGR FG,SKC,-99.99,VWS V12.07,2013-05-12 04:20:00,
2013-05-11 23:25:00,43.2,31.5,29.94,WNW,290,4.0,6.0,63,0.00, +TSGR FG,SKC,-99.99,VWS V12.07,2013-05-12 04:25:00,
2013-05-11 23:30:00,43.3,31.6,29.95,West,279,1.0,6.0,63,0.00, +TSGR FG,SKC,-99.99,VWS V12.07,2013-05-12 04:30:00,
2013-05-11 23:35:00,43.4,31.7,29.95,WNW,290,3.0,8.0,63,0.00, +TSGR FG,SKC,-99.99,VWS V12.07,2013-05-12 04:35:00,
2013-05-11 23:40:00,43.5,31.4,29.95,North,5,2.0,8.0,62,0.00, +TSGR FG,SKC,-99.99,VWS V12.07,2013-05-12 04:40:00,
2013-05-11 23:45:00,43.6,31.5,29.95,West,269,2.0,10.0,62,0.00, +TSGR FG,SKC,-99.99,VWS V12.07,2013-05-12 04:45:00,
2013-05-11 23:50:00,43.6,31.5,29.95,NNW,329,2.0,10.0,62,0.00, +TSGR FG,SKC,-99.99,VWS V12.07,2013-05-12 04:50:00,
2013-05-11 23:55:00,43.6,31.0,29.95,North,350,1.0,9.0,61,0.00, +TSGR FG,SKC,-99.99,VWS V12.07,2013-05-12 04:55:00,